Location: Lucerne Valley
(34.4439°N, 116.9669°E)
Time: 00:54:26
(UTC-07:00)

Envisat - Pass Details

Date: 12 October 2017
Orbit: 764 x 766 km, 98.2° (Epoch: 16 October)

Event Time Altitude Azimuth Distance (km) Brightness Sun altitude
Exits shadow 05:12:14 29° 345° (NNW) 1,386 4.5 -31.7°
Drops below altitude 10° 05:14:38 10° 347° (NNW) 2,304 5.7 -32.1°
Sets 05:16:56 0° 348° (NNW) 3,234 6.6 -32.6°
